�N����,����,�~����,�C��,���x,�C��,����,���ϕ���,�ő�u�ԕ���,�ő厞����,���˗�,�I�_���x,�n�����x,�ő啗���N��,DTYPE
"18/07/14","00:10",0.0,25.6,84.3,1004.5,332.8,2.0,4.2,329.1,0.00,22.8,25.8,"00:03:28",1
"18/07/14","00:20",0.0,25.5,84.1,1004.8,335.0,1.8,3.5,330.6,0.00,22.7,25.7,"00:11:12",1
"18/07/14","00:30",0.0,25.2,84.7,1004.5,336.5,1.2,2.5,345.2,0.00,22.5,25.5,"00:26:48",1
"18/07/14","00:40",0.0,25.0,85.5,1004.3,344.5,1.3,2.5,352.0,0.00,22.4,25.6,"00:36:08",1
"18/07/14","00:50",0.0,25.0,85.7,1004.5,339.1,1.3,2.8,318.8,0.00,22.5,25.4,"00:40:16",1
"18/07/14","01:00",0.0,25.0,86.0,1004.3,337.4,1.2,2.5,337.9,0.00,22.5,25.5,"00:58:24",1
"18/07/14","01:10",0.0,25.0,86.3,1004.5,344.6,1.1,2.0,341.0,0.00,22.6,25.5,"01:02:48",1
"18/07/14","01:20",0.0,24.9,86.3,1004.3,351.7,1.2,1.9,355.0,0.00,22.5,25.5,"01:16:00",1
"18/07/14","01:30",0.0,24.7,87.0,1004.8,345.1,1.2,2.1,337.6,0.00,22.4,25.3,"01:26:16",1
"18/07/14","01:40",0.0,24.5,87.4,1004.3,338.6,1.1,1.8,342.9,0.00,22.3,25.3,"01:39:44",1
"18/07/14","01:50",0.0,24.4,88.3,1004.5,326.9,0.8,1.3,286.5,0.00,22.4,25.5,"01:42:32",1
"18/07/14","02:00",0.0,24.3,88.5,1004.5,333.7,1.1,2.9,334.7,0.00,22.3,25.2,"01:52:00",1
"18/07/14","02:10",0.0,24.2,89.0,1004.5,331.0,1.1,2.0,334.1,0.00,22.3,25.5,"02:07:52",1
"18/07/14","02:20",0.0,24.1,89.5,1004.3,338.2,1.1,2.0,337.4,0.00,22.3,25.2,"02:11:52",1
"18/07/14","02:30",0.0,24.3,89.7,1004.8,340.4,1.3,2.7,348.4,0.00,22.5,25.2,"02:22:48",1
"18/07/14","02:40",0.0,24.2,89.5,1004.3,338.3,1.3,2.1,316.0,0.00,22.4,25.2,"02:33:20",1
"18/07/14","02:50",0.0,24.1,89.8,1004.5,336.9,1.5,2.5,336.4,0.00,22.4,25.3,"02:45:44",1
"18/07/14","03:00",0.0,24.3,89.9,1004.5,341.5,1.8,3.7,349.2,0.00,22.6,25.2,"02:51:44",1
"18/07/14","03:10",0.0,24.3,89.8,1004.8,337.9,1.5,2.6,351.8,0.00,22.6,25.1,"03:04:48",1
"18/07/14","03:20",0.0,24.2,89.7,1004.8,341.0,1.3,2.8,335.9,0.00,22.4,25.1,"03:11:04",1
"18/07/14","03:30",0.0,24.1,89.9,1004.8,331.8,1.5,2.5,345.4,0.00,22.4,25.0,"03:25:28",1
"18/07/14","03:40",0.0,24.0,90.1,1004.8,332.5,1.5,2.4,334.9,0.00,22.3,25.2,"03:34:24",1
"18/07/14","03:50",0.0,23.9,90.5,1005.2,333.6,1.5,2.4,355.0,0.00,22.3,25.0,"03:43:20",1
"18/07/14","04:00",0.0,23.8,90.7,1004.8,326.2,1.5,2.6,342.8,0.00,22.2,25.0,"03:56:48",1
"18/07/14","04:10",0.0,23.7,90.8,1005.0,337.1,1.5,2.4,343.9,0.00,22.1,24.9,"04:04:00",1
"18/07/14","04:20",0.0,23.7,91.2,1005.2,332.9,1.6,2.8,338.1,0.00,22.2,24.8,"04:19:12",1
"18/07/14","04:30",0.0,23.8,91.4,1005.2,336.2,1.0,1.7,350.9,0.00,22.4,25.0,"04:20:16",1
"18/07/14","04:40",0.0,23.7,91.4,1005.0,334.0,0.8,2.7,318.1,0.00,22.3,24.9,"04:37:44",1
"18/07/14","04:50",0.0,23.7,91.4,1005.0,352.5,1.2,2.1,324.4,0.00,22.3,24.8,"04:47:44",1
"18/07/14","05:00",0.0,23.7,91.2,1005.0,336.4,1.5,2.6,334.6,0.00,22.2,24.8,"04:54:08",1
"18/07/14","05:10",0.0,23.8,91.7,1005.0,330.3,1.6,2.9,343.3,0.00,22.4,25.0,"05:07:12",1
"18/07/14","05:20",0.0,23.9,91.6,1005.0,333.5,1.5,2.9,336.0,0.00,22.5,25.0,"05:10:40",1
"18/07/14","05:30",0.0,24.1,91.5,1005.2,321.2,1.5,2.9,348.4,0.00,22.7,24.9,"05:23:04",1
"18/07/14","05:40",0.0,24.2,91.2,1005.0,324.1,1.2,2.1,342.9,0.00,22.7,24.8,"05:30:32",1
"18/07/14","05:50",0.0,24.3,91.0,1005.5,333.5,1.7,2.8,335.7,0.00,22.8,24.8,"05:42:24",1
"18/07/14","06:00",0.0,24.5,90.7,1005.5,333.1,1.5,2.9,330.8,0.01,22.9,24.8,"05:55:12",1
"18/07/14","06:10",0.0,24.7,90.3,1005.5,339.2,1.6,3.4,335.4,0.02,23.0,24.6,"06:00:56",1
"18/07/14","06:20",0.0,25.2,89.3,1005.7,334.1,1.8,3.2,324.4,0.04,23.4,24.7,"06:12:16",1
"18/07/14","06:30",0.0,25.7,88.0,1005.2,334.0,1.6,2.7,328.8,0.04,23.6,24.7,"06:23:36",1
"18/07/14","06:40",0.0,25.9,86.3,1005.2,347.0,1.5,2.7,348.2,0.04,23.5,24.9,"06:32:16",1
"18/07/14","06:50",0.0,26.0,84.9,1005.2,340.2,1.0,2.0,322.9,0.04,23.3,24.8,"06:44:56",1
"18/07/14","07:00",0.0,26.2,84.4,1005.7,0.3,1.0,2.1,349.5,0.04,23.4,24.8,"06:59:04",1
"18/07/14","07:10",0.0,26.3,84.8,1005.7,347.6,1.0,1.7,336.3,0.08,23.6,24.8,"07:09:12",1
"18/07/14","07:20",0.0,26.8,83.6,1005.5,355.5,1.0,1.9,340.7,0.10,23.8,24.9,"07:12:32",1
"18/07/14","07:30",0.0,27.1,81.5,1005.7,4.6,0.8,2.1,346.4,0.11,23.7,24.9,"07:20:24",1
"18/07/14","07:40",0.0,27.5,79.7,1005.2,4.7,0.6,1.4,340.3,0.14,23.7,24.8,"07:34:48",1
"18/07/14","07:50",0.0,27.7,78.3,1005.2,338.5,0.6,1.4,341.7,0.19,23.6,25.0,"07:45:12",1
"18/07/14","08:00",0.0,28.1,77.3,1004.8,268.5,0.3,1.0,342.4,0.22,23.8,24.7,"07:52:00",1
"18/07/14","08:10",0.0,28.8,76.6,1005.5,40.9,0.5,1.4,13.1,0.25,24.3,25.0,"08:03:36",1
"18/07/14","08:20",0.0,29.2,76.5,1006.0,93.1,0.7,1.3,63.9,0.24,24.7,25.1,"08:15:04",1
"18/07/14","08:30",0.0,29.3,74.4,1005.5,94.6,0.6,1.7,116.0,0.29,24.3,25.0,"08:24:32",1
"18/07/14","08:40",0.0,29.8,74.3,1006.2,68.5,0.5,1.6,29.7,0.30,24.8,25.3,"08:32:24",1
"18/07/14","08:50",0.0,30.0,74.3,1006.4,97.3,0.8,2.0,133.2,0.32,25.0,25.5,"08:47:52",1
"18/07/14","09:00",0.0,30.7,72.0,1006.2,90.5,1.0,1.9,58.3,0.34,25.1,25.4,"08:53:44",1
"18/07/14","09:10",0.0,31.1,70.4,1006.2,99.0,0.7,2.0,107.7,0.37,25.1,25.6,"09:05:20",1
"18/07/14","09:20",0.0,31.1,69.7,1006.7,91.6,0.7,1.7,17.6,0.38,24.9,25.7,"09:16:00",1
"18/07/14","09:30",0.0,31.2,67.6,1006.7,129.0,0.8,2.6,119.5,0.40,24.5,25.7,"09:24:00",1
"18/07/14","09:40",0.0,31.4,65.0,1007.4,91.5,1.1,2.5,113.3,0.45,24.1,25.9,"09:34:16",1
"18/07/14","09:50",0.0,31.4,66.0,1006.9,124.4,0.8,1.9,96.5,0.46,24.3,26.0,"09:43:20",1
"18/07/14","10:00",0.0,31.8,65.7,1007.4,134.2,1.0,2.1,137.9,0.45,24.6,26.1,"09:59:28",1
"18/07/14","10:10",0.0,31.6,63.3,1007.6,174.2,1.0,2.4,201.3,0.42,23.8,26.3,"10:02:32",1
"18/07/14","10:20",0.0,32.0,66.4,1007.4,86.3,0.5,1.3,15.0,0.35,25.0,26.5,"10:14:16",1
"18/07/14","10:30",0.0,32.2,66.9,1007.4,70.1,0.3,1.3,6.7,0.34,25.3,26.7,"10:23:12",1
"18/07/14","10:40",0.0,32.1,65.3,1007.4,102.0,0.7,2.2,345.4,0.41,24.8,26.7,"10:39:20",1
"18/07/14","10:50",0.0,32.2,65.0,1007.1,173.6,1.7,3.1,226.5,0.51,24.8,26.7,"10:40:08",1
"18/07/14","11:00",0.0,33.2,64.8,1007.1,184.0,1.0,2.0,218.7,0.54,25.7,27.2,"10:54:00",1
"18/07/14","11:10",0.0,32.7,63.6,1007.1,199.7,2.0,4.9,193.3,0.57,24.9,27.3,"11:06:08",1
"18/07/14","11:20",0.0,32.9,63.3,1007.1,164.9,1.6,3.9,192.9,0.54,25.0,27.2,"11:16:48",1
"18/07/14","11:30",0.0,33.7,59.0,1006.7,210.7,1.2,2.8,227.0,0.56,24.6,27.4,"11:22:32",1
"18/07/14","11:40",0.0,33.4,61.9,1006.7,198.8,1.7,4.8,208.0,0.54,25.1,27.8,"11:38:24",1
"18/07/14","11:50",0.0,33.8,60.0,1006.4,215.0,1.2,4.4,201.5,0.53,25.0,28.1,"11:42:40",1
"18/07/14","12:00",0.0,33.8,59.2,1006.4,172.7,1.1,2.4,161.0,0.57,24.8,28.2,"11:59:28",1
"18/07/14","12:10",0.0,34.1,59.9,1006.2,193.4,1.6,3.1,209.0,0.53,25.2,28.4,"12:08:08",1
"18/07/14","12:20",0.0,34.9,56.3,1006.0,186.2,1.6,3.3,195.2,0.58,24.9,28.6,"12:15:12",1
"18/07/14","12:30",0.0,34.8,59.0,1005.7,235.6,1.3,3.1,303.3,0.58,25.6,28.9,"12:26:32",1
"18/07/14","12:40",0.0,34.7,59.4,1006.0,196.2,1.3,3.6,215.2,0.58,25.7,29.1,"12:36:40",1
"18/07/14","12:50",0.0,35.2,57.4,1006.4,196.4,1.0,2.8,220.6,0.58,25.5,29.3,"12:47:28",1
"18/07/14","13:00",0.0,35.4,50.9,1005.7,312.9,0.8,2.9,350.4,0.58,23.7,29.4,"12:52:48",1
"18/07/14","13:10",0.0,35.8,54.3,1006.0,202.3,1.2,5.0,347.7,0.57,25.2,29.4,"13:06:24",1
"18/07/14","13:20",0.0,35.7,54.9,1006.0,318.0,1.3,3.2,346.7,0.57,25.3,29.7,"13:19:44",1
"18/07/14","13:30",0.0,35.8,54.4,1005.7,294.9,1.1,2.9,343.4,0.56,25.2,29.5,"13:22:40",1
"18/07/14","13:40",0.0,36.5,50.2,1006.0,333.4,1.6,3.5,348.0,0.55,24.5,29.4,"13:32:32",1
"18/07/14","13:50",0.0,36.3,49.6,1005.5,348.2,1.1,2.4,345.3,0.54,24.1,29.4,"13:49:20",1
"18/07/14","14:00",0.0,36.1,51.7,1005.2,319.8,1.3,2.8,338.8,0.53,24.6,29.4,"13:52:48",1
"18/07/14","14:10",0.0,36.4,49.1,1005.5,306.7,1.7,3.5,318.4,0.51,24.0,29.3,"14:04:16",1
"18/07/14","14:20",0.0,36.8,50.5,1005.2,251.4,0.8,1.9,325.7,0.51,24.9,29.4,"14:10:08",1
"18/07/14","14:30",0.0,36.1,46.0,1005.0,338.8,2.0,4.3,329.4,0.50,22.7,29.6,"14:29:04",1
"18/07/14","14:40",0.0,36.7,48.3,1005.0,323.4,1.0,2.8,329.0,0.49,24.0,29.8,"14:36:32",1
"18/07/14","14:50",0.0,36.7,46.8,1005.0,315.6,1.5,4.2,341.5,0.48,23.5,29.7,"14:47:36",1
"18/07/14","15:00",0.0,37.0,46.0,1004.5,322.0,1.1,3.1,314.2,0.46,23.5,29.7,"14:58:32",1
"18/07/14","15:10",0.0,36.6,45.2,1004.5,349.4,1.8,4.2,345.7,0.44,22.8,29.8,"15:09:36",1
"18/07/14","15:20",0.0,36.7,45.6,1004.3,326.2,1.7,4.0,341.0,0.41,23.1,29.7,"15:16:48",1
"18/07/14","15:30",0.0,36.9,45.0,1004.5,350.9,1.5,3.6,343.8,0.40,23.0,29.8,"15:24:16",1
"18/07/14","15:40",0.0,36.5,48.2,1004.3,352.2,2.0,5.6,343.8,0.39,23.8,29.8,"15:35:12",1
"18/07/14","15:50",0.0,36.8,47.0,1004.1,353.7,1.7,3.6,341.1,0.37,23.7,30.0,"15:40:40",1
"18/07/14","16:00",0.0,37.1,44.1,1003.8,348.6,1.7,3.4,342.3,0.34,22.9,29.7,"15:51:12",1
"18/07/14","16:10",0.0,37.5,44.4,1004.3,1.2,1.3,3.5,344.6,0.32,23.4,29.7,"16:01:20",1
"18/07/14","16:20",0.0,37.2,44.9,1004.1,346.3,1.7,3.3,342.8,0.30,23.3,29.9,"16:13:36",1
"18/07/14","16:30",0.0,37.0,45.2,1003.8,352.4,1.7,5.5,337.4,0.28,23.2,29.9,"16:29:28",1
"18/07/14","16:40",0.0,36.7,47.1,1004.1,345.5,1.8,4.5,326.5,0.26,23.6,30.0,"16:32:32",1
"18/07/14","16:50",0.0,36.6,45.0,1003.8,350.7,1.7,3.6,359.4,0.23,22.8,29.9,"16:41:20",1
"18/07/14","17:00",0.0,36.2,45.7,1003.6,347.8,2.1,4.5,337.4,0.21,22.7,30.1,"16:52:48",1
"18/07/14","17:10",0.0,36.0,47.2,1003.8,348.3,1.8,3.9,323.0,0.18,23.0,29.9,"17:00:56",1
"18/07/14","17:20",0.0,35.7,46.7,1003.6,337.3,2.0,5.4,323.3,0.05,22.6,29.8,"17:15:12",1
"18/07/14","17:30",0.0,35.5,46.8,1003.1,346.8,2.0,3.5,327.0,0.01,22.4,29.6,"17:26:48",1
"18/07/14","17:40",0.0,35.5,46.4,1003.4,0.4,1.3,2.7,358.9,0.01,22.3,29.6,"17:31:28",1
"18/07/14","17:50",0.0,35.5,47.8,1003.6,359.4,1.2,3.5,0.4,0.01,22.8,29.7,"17:40:16",1
"18/07/14","18:00",0.0,35.1,47.4,1003.8,348.8,1.5,3.4,342.6,0.00,22.3,29.6,"17:53:12",1
"18/07/14","18:10",0.0,34.8,48.7,1003.6,348.6,1.5,3.5,346.3,0.00,22.4,29.6,"18:04:08",1
"18/07/14","18:20",0.0,34.4,49.1,1003.6,352.2,1.2,2.5,348.6,0.00,22.2,29.5,"18:17:12",1
"18/07/14","18:30",0.0,34.1,50.7,1003.6,352.5,0.8,2.1,353.8,0.00,22.5,29.3,"18:20:08",1
"18/07/14","18:40",0.0,33.4,52.7,1003.6,346.9,0.7,2.2,354.3,0.00,22.5,29.2,"18:34:40",1
"18/07/14","18:50",0.0,32.5,55.0,1003.4,346.9,0.7,1.6,342.7,0.00,22.3,29.1,"18:46:56",1
"18/07/14","19:00",0.0,31.7,56.5,1003.4,319.2,0.7,2.0,352.0,0.00,22.0,29.1,"18:55:28",1
"18/07/14","19:10",0.0,31.3,57.6,1002.9,324.1,0.7,1.8,344.4,0.00,22.0,29.1,"19:09:28",1
"18/07/14","19:20",0.0,30.9,58.3,1002.6,306.2,0.5,1.1,311.3,0.00,21.8,28.8,"19:13:52",1
"18/07/14","19:30",0.0,30.6,60.0,1002.6,192.9,0.5,1.6,161.3,0.00,22.0,28.7,"19:21:44",1
"18/07/14","19:40",0.0,30.1,62.1,1002.4,271.4,0.3,1.4,242.1,0.00,22.1,28.6,"19:33:44",1
"18/07/14","19:50",0.0,30.0,62.1,1002.2,283.8,0.6,1.4,358.6,0.00,22.0,28.6,"19:41:20",1
"18/07/14","20:00",0.0,29.6,63.4,1002.2,295.8,0.6,1.2,305.2,0.00,22.0,28.3,"19:57:44",1
"18/07/14","20:10",0.0,29.6,62.8,1002.2,282.8,0.6,1.8,316.1,0.00,21.8,28.2,"20:08:48",1
"18/07/14","20:20",0.0,29.5,63.4,1002.6,349.8,0.2,0.9,261.5,0.00,21.9,28.2,"20:10:56",1
"18/07/14","20:30",0.0,28.8,66.1,1002.9,320.6,0.3,1.0,311.4,0.00,21.9,28.1,"20:29:04",1
"18/07/14","20:40",0.0,28.5,66.7,1003.1,328.2,0.7,1.4,325.9,0.00,21.7,27.9,"20:33:20",1
"18/07/14","20:50",0.0,28.2,68.8,1003.1,338.0,0.8,1.8,335.7,0.00,22.0,27.9,"20:45:20",1
"18/07/14","21:00",0.0,27.7,70.7,1003.8,289.1,1.0,2.6,336.4,0.00,21.9,27.6,"20:58:40",1
"18/07/14","21:10",0.0,28.0,68.5,1003.6,271.4,0.7,1.4,236.4,0.00,21.7,27.6,"21:03:20",1
"18/07/14","21:20",0.0,27.6,69.4,1004.1,278.7,0.6,1.2,237.7,0.00,21.5,27.7,"21:15:52",1
"18/07/14","21:30",0.0,27.4,70.7,1004.3,311.5,1.0,1.3,326.8,0.00,21.6,27.4,"21:26:48",1
"18/07/14","21:40",0.0,26.9,72.8,1004.5,291.2,0.6,1.2,321.4,0.00,21.6,27.5,"21:33:28",1
"18/07/14","21:50",0.0,26.8,72.8,1004.5,296.8,0.7,1.2,336.8,0.00,21.5,27.5,"21:46:48",1
"18/07/14","22:00",0.0,26.5,74.6,1004.5,309.1,1.0,2.0,325.4,0.00,21.7,27.0,"21:53:44",1
"18/07/14","22:10",0.0,26.3,75.5,1004.8,309.1,1.1,2.0,307.2,0.00,21.7,27.2,"22:08:16",1
"18/07/14","22:20",0.0,26.3,76.0,1004.5,307.7,1.2,2.2,340.1,0.00,21.8,26.9,"22:16:48",1
"18/07/14","22:30",0.0,26.4,74.5,1004.5,320.1,1.3,2.7,356.9,0.00,21.5,26.9,"22:26:56",1
"18/07/14","22:40",0.0,26.4,73.9,1004.8,300.3,1.2,2.5,306.4,0.00,21.4,26.9,"22:32:08",1
"18/07/14","22:50",0.0,26.2,74.4,1004.8,318.5,0.8,2.0,313.9,0.00,21.3,26.8,"22:49:20",1
"18/07/14","23:00",0.0,26.2,74.7,1004.8,315.8,1.2,2.6,329.7,0.00,21.4,26.7,"22:53:36",1
"18/07/14","23:10",0.0,26.1,75.0,1004.5,309.8,1.3,2.5,328.7,0.00,21.4,26.7,"23:01:04",1
"18/07/14","23:20",0.0,26.0,74.6,1004.8,306.6,1.1,2.6,325.4,0.00,21.2,26.7,"23:16:56",1
"18/07/14","23:30",0.0,25.9,74.3,1005.0,305.2,1.3,2.7,315.3,0.00,21.0,26.5,"23:21:52",1
"18/07/14","23:40",0.0,25.8,75.3,1004.8,312.6,1.5,3.2,339.6,0.00,21.1,26.4,"23:36:56",1
"18/07/14","23:50",0.0,25.6,75.8,1004.8,316.0,1.6,3.3,340.5,0.00,21.1,26.4,"23:42:32",1
"18/07/14","24:00",0.0,25.3,77.2,1004.8,323.0,1.2,2.2,329.7,0.00,21.1,26.4,"23:57:12",1
